Regional Weather Roundup
Issued by NWS Bismarck, ND

Home | Current Version | Previous Version | Text Only | Print | Product List | Glossary On
Versions: 1 2 3 4 5 6 7 8 9 10 11 12 13 14 15 16 17 18 19 20 21 22 23 24 25 26 27 28 29 30 31 32 33 34 35 36 37 38 39 40 41 42 43 44 45 46 47 48 49 50
000
ASUS43 KBIS 111010
RWRBIS

NWR BROADCAST TEXT
NATIONAL WEATHER SERVICE BISMARCK ND
500 AM CDT FRI JUL 11 2014

NOTE: "FAIR" INDICATES FEW OR NO CLOUDS BELOW 12,000 FEET WITH NO
SIGNIFICANT WEATHER AND/OR OBSTRUCTIONS TO VISIBILITY.


CITY           SKY/WX    TMP DP  RH WIND       PRES   REMARKS
WILLISTON      CLEAR     60  57  89 NW3       29.93R
MINOT          PTCLDY    64  61  90 NW9       29.85R
MINOT AFB      CLEAR     64  63  99 NW9       29.86R
BISMARCK       CLEAR     63  32  31 NE7       29.83R
DICKINSON      CLEAR     62  60  93 NW8       29.89R
GARRISON         N/A     62  61  96 N9        29.83S
HETTINGER ARPT CLEAR     63  61  93 CALM      29.90S
JAMESTOWN      FOG       64  63  96 W5        29.81S VSB 1/4
CARRINGTON     FAIR      61  61 100 W6        29.83R
CROSBY           N/A     55  55 100 CALM      29.93R
HARVEY         FAIR      61  61 100 SW5       29.81S FOG
HAZEN          FOG       59  57  94 W5        29.84S VSB 1
LINTON         FAIR      57  57 100 CALM      29.83S FOG
MANDAN         FAIR      64  64 100 CALM      29.85R
RUGBY          PTSUNNY   64  64 100 N8        29.84R
STANLEY          N/A     61  61 100 N7        29.91R
TIOGA          FAIR      57  57 100 NE5       29.95R
WATFORD CITY   FAIR      59  59 100 NW5       29.92R
$$

CITY           SKY/WX    TMP DP  RH WIND       PRES   REMARKS
GRAND FORKS    CLEAR     61  61 100 CALM      29.79R FOG
GRAND FORKS AF CLEAR     60  60 100 CALM      29.80R
DEVILS LAKE    CLEAR     63  57  82 CALM      29.80R
FARGO          PTCLDY    70  67  90 SE7       29.79R
CANDO          FAIR      61  59  94 W3        29.84R
CAVALIER       FAIR      64  63  94 CALM      29.79R
GRAFTON        FAIR      59  59 100 CALM      29.79S
GWINNER        SUNNY     70  70 100 W5        29.82R
LANGDON        FAIR      59  59 100 CALM      29.82R FOG
ROLLA          CLOUDY    64  64 100 NW10      29.85S
WALHALLA         N/A     66  66 100 SW5         N/A
$$

CITY           SKY/WX    TMP DP  RH WIND       PRES   REMARKS
ABERDEEN       CLEAR     67  67 100 S8        29.82R
MOBRIDGE       PTCLDY    63  63 100 E3        29.82R FOG
BUFFALO          N/A     62  60  93 CALM      29.86R
RAPID CITY     CLOUDY    65  62  90 SE7       29.93R
GLASGOW        CLOUDY    64  61  90 N9        30.00F
SIDNEY         PTCLDY    64  59  82 N9        29.94F
WOLF POINT     LGT RAIN  63  58  83 E13       29.93S
GLENDIVE       CLOUDY    64  57  77 NE12      29.95R
MILES CITY     CLEAR     65  61  87 NE10      29.92R
BAKER          CLEAR     61  59  93 CALM      29.93R
$$

CITY           SKY/WX    TMP DP  RH WIND       PRES   REMARKS
BILLINGS       CLEAR     66  49  54 NW5       29.93R
GREAT FALLS    PTCLDY    59  54  83 NW8       30.08R
REGINA         PTCLDY    55  52  88 NW10      29.96R
ESTEVAN        PTCLDY    57  55  94 NW6       29.92R
$$



USA.gov is the U.S. government's official web portal to all federal, state and local government web resources and services.